Flight Information

DEPARTURE
YAKIMA, WA
Elevation:
1098
Runways:
9/27 - 7604x150 - ASPH-E
4/22 - 3835x150 - ASPH-P
ATIS:
125.25
Clearance Delivery:
121.9
Ground:
121.9
Tower:
YAKIMA TOW ER 133.25
DESTINATION
,
Elevation:
TPA:
1000 (est.)


6626.7 NM67° True-19° Var47° HDG

Flight Plan:
(click to file on line)

1. Type
2. Aircraft Identification
3. Aircraft Type / Special Equipment
4. True Airspeed
kts
5. Departure Airport
(ICAO code)
6. Arriving Airport
(ICAO code)
7. Cruising Altitude
ft
8. Alternate Airport
(ICAO code)
9. Route of Flight
10. Remarks


00:00:00 Departure ATIS: Destination ATIS:

Clearance Limit:
Route:
Altitude: Expect in minutes
Frequency:
Transponder: (7500 Hijack / 7600 Lost Comms / 7700 Emergency)


KYKM 100553Z AUTO 00000KT 1SM R27/P6000FT -SN BR OVC015 M03/M05 A2966 RMK AO2 SLP056 P0008 60033 T10331050 11033 21039 56022
Time: 2022-12-10T05:53:00Z
1670652507
Winds: calm
Visibility: 1.0 sm
Clouds (AGL): OVC 1500
Temperature: -3.3 C
Dew Point: -5.0 C
Pressure: 29.660433 in Hgbr


Notes:

Data extracted from FAA Digital Chart Supplement. Effective: 0901Z Thursday, 27 JAN 2022 to 0900z Thursday, 24 MAR 2022
Current ATIS data is provided courtisy of PilotEdge.